{"data":{"norad_id":52333,"epoch":"2026-09-19T18:04:19.135200Z","epoch_age_seconds":124200,"freshness":"FRESH","line1":"1 52333U 22045C   26262.75299925  .00000494  00000+0  27682-4 0  9990","line2":"2 52333  53.1608  43.4175 0001133  77.7310 282.3819 15.31702499245126","mean_motion":15.31702499,"eccentricity":0.0001133,"inclination_deg":53.1608,"raan_deg":43.4175,"arg_perigee_deg":77.731,"mean_anomaly_deg":282.3819,"bstar":2.7682e-5,"rev_number":24512,"period_min":94.013034576893,"perigee_km":469.95656892727,"apogee_km":471.50852276636,"semimajor_km":6848.8695458468,"source":"CELESTRAK","updated_at":"2026-09-20T09:00:40.021325Z"}}